Location: ???????
(54.9996°N, 37.9529°E)
Time: 13:10:22
(UTC+00:00)

Sich 1 - Pass Details

Date: 14 April 2024
Orbit: 584 x 612 km, 82.5° (Epoch: 17 May)

Event Time Altitude Azimuth Distance (km) Brightness Sun altitude
Rises 00:14:16 0° 347° (NNW) 2,827 6.9 -16.8°
Reaches altitude 10° 00:16:29 10° 348° (NNW) 1,921 6.0 -16.6°
Maximum altitude 00:20:44 87° 259° (W) 595 2.9 -16.1°
Enters shadow 00:24:29 13° 171° (S) 1,723 5.0 -15.8°
